Madison, MN

11:07 PM CST on December 09, 2019 (GMT -0600)
Madison-Lac Qui Parle County

Weather History for KDXX - August, 2019

Change the Weather History Date:

Saturday, August 10, 2019

  Actual Average (WUND) Record (WUND)
Temperature  
Mean Temperature 68 °F -  
Max Temperature 71 °F - - (-1)
Min Temperature 66 °F - - (-1)
Cooling Degree Days 4    
Growing Degree Days 18 (Base 50)    
Moisture  
Dew Point 65 °F    
Average Humidity 88    
Maximum Humidity 94    
Minimum Humidity 73    
Precipitation  
Precipitation 0.05 in - - ()
Sea Level Pressure  
Sea Level Pressure 29.92 in    
Wind  
Wind Speed 9 mph (ESE)    
Max Wind Speed 16 mph    
Max Gust Speed 23 mph    
Visibility 8 miles    
Events Rain    
Averages and records for this station are not official NWS values.
T = Trace of Precipitation, MM = Missing Value Source: NWS Daily Summary

Daily Weather History Graph

Daily Weather History Graph

Search for Another Location

Airport or City:

Astronomy

Aug. 10, 2019 Rise Set
Actual Time 6:20 AM CDT 8:39 PM CDT
Civil Twilight 5:47 AM CDT 9:11 PM CDT
Nautical Twilight 5:07 AM CDT 9:51 PM CDT
Astronomical Twilight 4:21 AM CDT 10:36 PM CDT
Moon 5:28 PM CDT 1:53 AM CDT
Length of Visible Light 15h 23m
Length of Day
14h 18m
Waxing Gibbous, 79% of the Moon is Illuminated
Aug 10
Waxing Gibbous
Aug 15
Full
Aug 23
Last Quarter
Aug 30
New
Sep 5
First Quarter

Hourly Weather History & Observations

Time (CDT) Temp. Dew Point Humidity Pressure Visibility Wind Dir Wind Speed Gust Speed Precip Events Conditions
12:15 AM 69.8 °F 62.6 °F 78% 29.93 in 10.0 mi ESE 10.4 mph - N/A   Overcast
12:16 AM 69.8 °F 62.6 °F 78% 29.93 in 10.0 mi ESE 10.4 mph - N/A   Overcast
12:38 AM 69.8 °F 62.6 °F 78% 29.93 in 10.0 mi ESE 8.1 mph - N/A   Overcast
12:56 AM 69.8 °F 60.8 °F 73% 29.92 in 10.0 mi ESE 10.4 mph - N/A   Mostly Cloudy
1:15 AM 69.8 °F 62.6 °F 78% 29.93 in 10.0 mi SE 10.4 mph - N/A   Overcast
1:16 AM 69.8 °F 62.6 °F 78% 29.93 in 10.0 mi SE 10.4 mph - N/A   Overcast
1:35 AM 69.8 °F 60.8 °F 73% 29.92 in 10.0 mi ESE 10.4 mph - N/A Rain Light Rain
1:36 AM 69.8 °F 60.8 °F 73% 29.92 in 10.0 mi ESE 10.4 mph - N/A Rain Light Rain
1:55 AM 69.8 °F 60.8 °F 73% 29.92 in 10.0 mi SE 10.4 mph - N/A   Mostly Cloudy
1:59 AM 69.8 °F 60.8 °F 73% 29.92 in 10.0 mi ESE 9.2 mph - N/A   Mostly Cloudy
2:16 AM 69.8 °F 60.8 °F 73% 29.92 in 10.0 mi SE 6.9 mph - N/A   Scattered Clouds
2:36 AM 68.0 °F 62.6 °F 83% 29.92 in 10.0 mi ESE 8.1 mph - N/A   Mostly Cloudy
2:55 AM 69.8 °F 60.8 °F 73% 29.92 in 10.0 mi SE 9.2 mph - N/A   Overcast
3:15 AM 68.0 °F 60.8 °F 78% 29.91 in 10.0 mi ESE 12.7 mph - N/A Rain Light Rain
3:19 AM 68.0 °F 60.8 °F 78% 29.91 in 10.0 mi ESE 12.7 mph - 0.03 in Rain Light Rain
3:37 AM 66.2 °F 62.6 °F 88% 29.91 in 10.0 mi ESE 13.8 mph 23.0 mph 0.02 in Rain Light Rain
3:56 AM 66.2 °F 64.4 °F 94% 29.91 in 10.0 mi SE 11.5 mph - N/A   Overcast
4:15 AM 66.2 °F 62.6 °F 88% 29.91 in 10.0 mi ESE 10.4 mph 16.1 mph N/A   Overcast
4:16 AM 66.2 °F 62.6 °F 88% 29.91 in 10.0 mi SE 12.7 mph 16.1 mph N/A   Overcast
4:35 AM 66.2 °F 62.6 °F 88% 29.91 in 10.0 mi SE 15.0 mph 19.6 mph N/A   Overcast
4:36 AM 66.2 °F 62.6 °F 88% 29.91 in 10.0 mi SE 13.8 mph 19.6 mph N/A   Overcast
4:59 AM 66.2 °F 60.8 °F 83% 29.91 in 10.0 mi SE 12.7 mph - N/A   Overcast
5:16 AM 66.2 °F 62.6 °F 88% 29.90 in 10.0 mi ESE 16.1 mph 20.7 mph N/A   Overcast
5:35 AM 66.2 °F 62.6 °F 88% 29.90 in 10.0 mi ESE 10.4 mph - N/A   Drizzle
5:55 AM 66.2 °F 62.6 °F 88% 29.90 in 10.0 mi SE 13.8 mph - N/A Rain Light Rain
5:56 AM 66.2 °F 62.6 °F 88% 29.90 in 10.0 mi SE 12.7 mph - N/A Rain Light Rain
6:15 AM 66.2 °F 64.4 °F 94% 29.90 in 10.0 mi SE 13.8 mph - N/A Rain Light Rain
6:19 AM 66.2 °F 64.4 °F 94% 29.90 in 10.0 mi SE 12.7 mph 20.7 mph 0.01 in Rain Light Rain
6:38 AM 66.2 °F 64.4 °F 94% 29.91 in 10.0 mi SE 12.7 mph 19.6 mph 0.01 in   Drizzle
6:55 AM 66.2 °F 64.4 °F 94% 29.91 in 10.0 mi SE 12.7 mph 17.3 mph 0.01 in   Light Drizzle
7:15 AM 66.2 °F 64.4 °F 94% 29.91 in 10.0 mi SE 11.5 mph 17.3 mph N/A   Overcast
7:35 AM 66.2 °F 64.4 °F 94% 29.91 in 10.0 mi SE 10.4 mph 19.6 mph N/A   Overcast
7:58 AM 66.2 °F 64.4 °F 94% 29.92 in 10.0 mi SE 12.7 mph 17.3 mph N/A   Overcast
8:17 AM 66.2 °F 64.4 °F 94% 29.92 in 10.0 mi SE 10.4 mph - N/A   Overcast
8:36 AM 66.2 °F 64.4 °F 94% 29.93 in 10.0 mi SSE 11.5 mph - N/A Rain Rain
8:55 AM 66.2 °F 64.4 °F 94% 29.93 in 7.0 mi SE 11.5 mph - N/A Rain Rain
8:56 AM 66.2 °F 64.4 °F 94% 29.93 in 7.0 mi SE 10.4 mph - N/A Rain Rain
9:15 AM 66.2 °F 64.4 °F 94% 29.93 in 10.0 mi SE 11.5 mph 17.3 mph N/A   Overcast
9:37 AM 66.2 °F 64.4 °F 94% 29.92 in 10.0 mi SE 11.5 mph - N/A   Overcast
9:55 AM 66.2 °F 64.4 °F 94% 29.92 in 10.0 mi ESE 10.4 mph - N/A   Overcast
10:15 AM 66.2 °F 64.4 °F 94% 29.93 in 10.0 mi ESE 9.2 mph - N/A   Overcast
10:35 AM 68.0 °F 64.4 °F 88% 29.93 in 10.0 mi ESE 10.4 mph - N/A   Overcast
10:36 AM 68.0 °F 64.4 °F 88% 29.93 in 10.0 mi ESE 10.4 mph - N/A   Overcast
10:58 AM 68.0 °F 64.4 °F 88% 29.93 in 10.0 mi ESE 8.1 mph - N/A   Overcast
11:16 AM 68.0 °F 64.4 °F 88% 29.93 in 7.0 mi ESE 6.9 mph - N/A   Overcast
11:35 AM 68.0 °F 64.4 °F 88% 29.93 in 4.0 mi East 5.8 mph - N/A   Light Drizzle
11:36 AM 68.0 °F 64.4 °F 88% 29.93 in 4.0 mi East 5.8 mph - N/A   Light Drizzle
11:55 AM 69.8 °F 66.2 °F 88% 29.92 in 10.0 mi ESE 9.2 mph - N/A   Overcast
11:56 AM 69.8 °F 66.2 °F 88% 29.92 in 10.0 mi ESE 9.2 mph - N/A   Overcast
12:15 PM 69.8 °F 66.2 °F 88% 29.92 in 10.0 mi East 9.2 mph - N/A   Overcast
12:38 PM 69.8 °F 66.2 °F 88% 29.91 in 10.0 mi East 10.4 mph - N/A   Overcast
12:55 PM 69.8 °F 66.2 °F 88% 29.91 in 4.0 mi East 9.2 mph - N/A   Overcast
1:15 PM 69.8 °F 66.2 °F 88% 29.91 in 2.5 mi East 6.9 mph - N/A   Drizzle
1:16 PM 69.8 °F 66.2 °F 88% 29.91 in 2.5 mi East 6.9 mph - N/A   Light Drizzle
1:35 PM 69.8 °F 66.2 °F 88% 29.91 in 2.5 mi East 8.1 mph - N/A   Light Drizzle
1:58 PM 69.8 °F 66.2 °F 88% 29.91 in 3.0 mi East 6.9 mph - N/A   Mostly Cloudy
2:17 PM 69.8 °F 66.2 °F 88% 29.92 in 7.0 mi ENE 6.9 mph - N/A   Mostly Cloudy
2:36 PM 69.8 °F 66.2 °F 88% 29.92 in 10.0 mi NE 5.8 mph - N/A   Overcast
2:55 PM 69.8 °F 66.2 °F 88% 29.92 in 4.0 mi NE 6.9 mph - N/A   Drizzle
2:56 PM 69.8 °F 66.2 °F 88% 29.92 in 4.0 mi ENE 6.9 mph - N/A   Drizzle
3:15 PM 69.8 °F 68.0 °F 94% 29.92 in 3.0 mi NE 6.9 mph - N/A   Drizzle
3:37 PM 69.8 °F 68.0 °F 94% 29.92 in 3.0 mi ENE 5.8 mph - 0.01 in   Drizzle
3:56 PM 69.8 °F 68.0 °F 94% 29.92 in 4.0 mi ENE 5.8 mph - N/A   Light Drizzle
4:15 PM 69.8 °F 68.0 °F 94% 29.92 in 5.0 mi NE 6.9 mph - N/A   Overcast
4:35 PM 69.8 °F 68.0 °F 94% 29.92 in 7.0 mi ENE 5.8 mph - N/A   Overcast
4:36 PM 69.8 °F 68.0 °F 94% 29.92 in 7.0 mi ENE 5.8 mph - N/A   Overcast
4:59 PM 71.6 °F 69.8 °F 94% 29.91 in 10.0 mi East 6.9 mph - N/A   Overcast
5:16 PM 71.6 °F 69.8 °F 94% 29.92 in 10.0 mi East 8.1 mph - N/A   Overcast
5:36 PM 71.6 °F 69.8 °F 94% 29.91 in 10.0 mi East 6.9 mph - N/A   Overcast
5:55 PM 71.6 °F 68.0 °F 88% 29.92 in 10.0 mi East 5.8 mph - N/A   Overcast
5:56 PM 71.6 °F 68.0 °F 88% 29.92 in 10.0 mi East 4.6 mph - N/A   Overcast
6:15 PM 71.6 °F 69.8 °F 94% 29.91 in 10.0 mi ENE 5.8 mph - N/A   Overcast
6:19 PM 71.6 °F 69.8 °F 94% 29.91 in 10.0 mi East 5.8 mph - N/A   Overcast
6:38 PM 71.6 °F 68.0 °F 88% 29.91 in 10.0 mi ENE 4.6 mph - N/A   Overcast
6:55 PM 71.6 °F 68.0 °F 88% 29.92 in 10.0 mi ENE 3.5 mph - N/A   Overcast
7:15 PM 71.6 °F 68.0 °F 88% 29.91 in 10.0 mi East 3.5 mph - N/A   Overcast
7:16 PM 71.6 °F 68.0 °F 88% 29.91 in 10.0 mi East 4.6 mph - N/A   Overcast
7:35 PM 71.6 °F 68.0 °F 88% 29.90 in 10.0 mi East 4.6 mph - N/A   Overcast
7:58 PM 69.8 °F 68.0 °F 94% 29.90 in 10.0 mi East 4.6 mph - N/A   Overcast
8:16 PM 69.8 °F 68.0 °F 94% 29.91 in 10.0 mi East 3.5 mph - N/A   Overcast
8:35 PM 69.8 °F 68.0 °F 94% 29.92 in 10.0 mi Calm Calm - N/A   Overcast
8:36 PM 69.8 °F 68.0 °F 94% 29.92 in 10.0 mi Calm Calm - N/A   Overcast
8:55 PM 69.8 °F 66.2 °F 88% 29.92 in 10.0 mi East 3.5 mph - N/A   Overcast
8:56 PM 69.8 °F 66.2 °F 88% 29.92 in 10.0 mi East 3.5 mph - N/A   Overcast
9:15 PM 69.8 °F 66.2 °F 88% 29.93 in 10.0 mi Calm Calm - N/A   Overcast
9:20 PM 69.8 °F 66.2 °F 88% 29.93 in 10.0 mi Calm Calm - N/A   Overcast
9:37 PM 69.8 °F 66.2 °F 88% 29.93 in 7.0 mi Calm Calm - N/A   Overcast
9:55 PM 69.8 °F 66.2 °F 88% 29.95 in 5.0 mi Calm Calm - N/A   Overcast
10:15 PM 69.8 °F 66.2 °F 88% 29.95 in 7.0 mi Calm Calm - N/A   Overcast
10:35 PM 69.8 °F 66.2 °F 88% 29.95 in 4.0 mi Calm Calm - N/A   Overcast
10:36 PM 69.8 °F 66.2 °F 88% 29.95 in 3.0 mi Calm Calm - N/A   Overcast
10:58 PM 69.8 °F 68.0 °F 94% 29.95 in 3.0 mi NNE 3.5 mph - N/A   Overcast
11:17 PM 68.0 °F 66.2 °F 94% 29.96 in 5.0 mi Calm Calm - N/A   Overcast
11:36 PM 68.0 °F 66.2 °F 94% 29.97 in 7.0 mi Calm Calm - N/A   Overcast
11:55 PM 68.0 °F 66.2 °F 94% 29.97 in 7.0 mi NNE 3.5 mph - N/A   Overcast
11:56 PM 68.0 °F 66.2 °F 94% 29.97 in 7.0 mi NNE 3.5 mph - N/A   Overcast